Location: Moy Burn
(57.3833°N, 4.0667°W)
Time: 10:03:21
(UTC+00:00)

Cosmos 1633 Rocket - Pass Details

Date: 08 August 2020
Orbit: 606 x 625 km, 82.5° (Epoch: 18 September)

Event Time Altitude Azimuth Distance (km) Brightness Sun altitude
Rises 20:55:18 0° 170° (S) 2,901 6.0 -5.3°
Reaches altitude 10° 20:57:36 10° 163° (SSE) 1,998 5.2 -5.5°
Maximum altitude 21:01:47 42° 93° (E) 895 3.6 -6.0°
Drops below altitude 10° 21:05:59 10° 23° (NNE) 2,008 6.0 -6.4°
Sets 21:08:17 0° 17° (NNE) 2,917 6.9 -6.6°
